GSAT0223 (GALILEO 27)

Last updated on Fri Dec 12 2025 00:02:35 GMT+0000 (Coordinated Universal Time)

1 49809U 21116A 25344.11071397 -.00000087 00000+0 00000+0 0 9992 2 49809 57.2198 346.7831 0004630 251.6037 107.9349 1.70475768 24951
UTC large
Height (km)
Speed (km/s)
/
Latitude / Longitude
Inclination (degrees)
Orbital Period (minutes)
Azimuth
Elevation
Range (km)
Doppler Factor

Next 0 passes for location: London (51.5072 / 0.1276)

Sorry there are no passes over London.